Hourly Weather Stafford

Today, 11 August, Tuesday

Time Temperature Precipitation Wind Pressure Humidity
00:00 +19°C° 1.3 mm 4 mps 753 mmHg 93%
01:00 +19°C° 0.6 mm 4 mps 753 mmHg 94%
02:00 +19°C° 0.6 mm 4 mps 753 mmHg 95%
03:00 +19°C° 0.6 mm 4 mps 753 mmHg 96%
04:00 +19°C° 0.2 mm 3 mps 753 mmHg 96%
05:00 +19°C° 0.2 mm 3 mps 753 mmHg 95%
06:00 +19°C° 0.2 mm 3 mps 753 mmHg 95%
07:00 +20°C° 0 mm 3 mps 753 mmHg 91%
08:00 +22°C° 0 mm 3 mps 753 mmHg 87%
09:00 +24°C° 0 mm 3 mps 753 mmHg 83%
10:00 +26°C° 0 mm 3 mps 753 mmHg 78%
11:00 +27°C° 0 mm 3 mps 753 mmHg 73%
12:00 +29°C° 0 mm 3 mps 753 mmHg 68%
13:00 +29°C° 0.1 mm 2 mps 753 mmHg 64%
14:00 +30°C° 0.1 mm 2 mps 753 mmHg 60%
15:00 +31°C° 0.1 mm 2 mps 752 mmHg 55%
16:00 +31°C° 0.3 mm 2 mps 752 mmHg 59%
17:00 +30°C° 0.3 mm 2 mps 752 mmHg 63%
18:00 +29°C° 0.3 mm 2 mps 752 mmHg 67%
19:00 +27°C° 1.3 mm 2 mps 752 mmHg 74%
20:00 +26°C° 1.3 mm 3 mps 752 mmHg 81%
21:00 +24°C° 1.3 mm 3 mps 752 mmHg 88%
22:00 +22°C° 1.9 mm 3 mps 752 mmHg 90%
23:00 +22°C° 1.9 mm 3 mps 752 mmHg 92%

Tomorrow, 12 August, Wednesday

Time Temperature Precipitation Wind Pressure Humidity
00:00 +21°C° 1.9 mm 3 mps 752 mmHg 94%
01:00 +21°C° 1.3 mm 3 mps 752 mmHg 94%
02:00 +21°C° 1.3 mm 2 mps 752 mmHg 94%
03:00 +20°C° 1.3 mm 2 mps 752 mmHg 95%
04:00 +21°C° 0.1 mm 2 mps 752 mmHg 94%
05:00 +21°C° 0.1 mm 2 mps 752 mmHg 94%
06:00 +22°C° 0.1 mm 1 mps 752 mmHg 94%
07:00 +23°C° 0 mm 1 mps 752 mmHg 89%
08:00 +24°C° 0 mm 1 mps 752 mmHg 84%
09:00 +25°C° 0 mm 1 mps 752 mmHg 80%
10:00 +26°C° 0 mm 1 mps 752 mmHg 75%
11:00 +27°C° 0 mm 1 mps 752 mmHg 71%
12:00 +29°C° 0 mm 1 mps 752 mmHg 67%
13:00 +29°C° 0 mm 1 mps 752 mmHg 65%
14:00 +30°C° 0 mm 1 mps 752 mmHg 63%
15:00 +30°C° 0 mm 2 mps 752 mmHg 61%
16:00 +29°C° 0.8 mm 2 mps 751 mmHg 66%
17:00 +28°C° 0.8 mm 3 mps 751 mmHg 72%
18:00 +27°C° 0.8 mm 4 mps 751 mmHg 77%
19:00 +25°C° 1.7 mm 3 mps 751 mmHg 82%
20:00 +24°C° 1.7 mm 3 mps 751 mmHg 87%
21:00 +21°C° 1.7 mm 3 mps 752 mmHg 93%
22:00 +21°C° 0.9 mm 3 mps 751 mmHg 93%
23:00 +21°C° 0.9 mm 3 mps 751 mmHg 94%

Day after tomorrow, 13 August, Thursday

Time Temperature Precipitation Wind Pressure Humidity
00:00 +20°C° 0.9 mm 3 mps 751 mmHg 94%
01:00 +20°C° 0.4 mm 3 mps 751 mmHg 94%
02:00 +20°C° 0.4 mm 3 mps 751 mmHg 94%
03:00 +20°C° 0.4 mm 3 mps 750 mmHg 94%
04:00 +20°C° 1.4 mm 3 mps 750 mmHg 94%
05:00 +20°C° 1.4 mm 3 mps 750 mmHg 95%
06:00 +20°C° 1.4 mm 3 mps 750 mmHg 95%
07:00 +20°C° 1.1 mm 3 mps 751 mmHg 93%
08:00 +21°C° 1.1 mm 3 mps 751 mmHg 92%
09:00 +21°C° 1.1 mm 3 mps 751 mmHg 91%
10:00 +22°C° 0.4 mm 3 mps 751 mmHg 88%
11:00 +24°C° 0.4 mm 3 mps 751 mmHg 86%
12:00 +25°C° 0.4 mm 3 mps 751 mmHg 83%
13:00 +25°C° 0.2 mm 4 mps 751 mmHg 81%
14:00 +26°C° 0.2 mm 4 mps 750 mmHg 79%
15:00 +27°C° 0.2 mm 4 mps 750 mmHg 77%
16:00 +26°C° 0.2 mm 4 mps 750 mmHg 79%
17:00 +25°C° 0.2 mm 4 mps 750 mmHg 81%
18:00 +25°C° 0.2 mm 4 mps 750 mmHg 82%
19:00 +22°C° 0.8 mm 4 mps 750 mmHg 86%
20:00 +21°C° 0.8 mm 4 mps 750 mmHg 89%
21:00 +20°C° 0.8 mm 3 mps 750 mmHg 92%
22:00 +19°C° 0.7 mm 3 mps 750 mmHg 92%
23:00 +19°C° 0.7 mm 3 mps 750 mmHg 92%

14 August, Friday

Time Temperature Precipitation Wind Pressure Humidity
00:00 +19°C° 0.7 mm 3 mps 750 mmHg 92%
01:00 +19°C° 0.6 mm 3 mps 750 mmHg 93%
02:00 +19°C° 0.6 mm 3 mps 750 mmHg 93%
03:00 +19°C° 0.6 mm 3 mps 750 mmHg 93%
04:00 +19°C° 0.5 mm 3 mps 750 mmHg 93%
05:00 +18°C° 0.5 mm 3 mps 750 mmHg 94%
06:00 +18°C° 0.5 mm 3 mps 750 mmHg 94%
07:00 +19°C° 0.3 mm 3 mps 750 mmHg 93%
08:00 +19°C° 0.3 mm 3 mps 750 mmHg 92%
09:00 +19°C° 0.3 mm 3 mps 750 mmHg 91%
10:00 +19°C° 0.2 mm 3 mps 750 mmHg 91%
11:00 +19°C° 0.2 mm 3 mps 750 mmHg 90%
12:00 +19°C° 0.2 mm 3 mps 750 mmHg 90%
13:00 +19°C° 0.1 mm 3 mps 750 mmHg 90%
14:00 +19°C° 0.1 mm 2 mps 750 mmHg 89%
15:00 +19°C° 0.1 mm 2 mps 750 mmHg 89%
16:00 +19°C° 0 mm 2 mps 750 mmHg 90%
17:00 +19°C° 0 mm 2 mps 750 mmHg 90%
18:00 +19°C° 0 mm 2 mps 750 mmHg 91%
19:00 +18°C° 0 mm 2 mps 750 mmHg 91%
20:00 +18°C° 0 mm 2 mps 750 mmHg 92%
21:00 +18°C° 0 mm 2 mps 751 mmHg 92%
22:00 +19°C° 0.2 mm 1 mps 751 mmHg 92%
23:00 +19°C° 0.2 mm 1 mps 751 mmHg 93%

15 August, Saturday

Time Temperature Precipitation Wind Pressure Humidity
00:00 +19°C° 0.2 mm 1 mps 751 mmHg 93%
01:00 +19°C° 0.8 mm 1 mps 750 mmHg 94%
02:00 +19°C° 0.8 mm 1 mps 750 mmHg 95%
03:00 +18°C° 0.8 mm 1 mps 750 mmHg 96%
04:00 +18°C° 0.7 mm 1 mps 750 mmHg 96%
05:00 +18°C° 0.7 mm 1 mps 750 mmHg 96%
06:00 +16°C° 0.7 mm 0 mps 750 mmHg 96%
07:00 +19°C° 0.4 mm 1 mps 750 mmHg 95%
08:00 +19°C° 0.4 mm 1 mps 750 mmHg 94%
09:00 +19°C° 0.4 mm 1 mps 751 mmHg 93%
10:00 +20°C° 0.1 mm 1 mps 751 mmHg 90%
11:00 +21°C° 0.1 mm 1 mps 751 mmHg 87%
12:00 +22°C° 0.1 mm 1 mps 751 mmHg 84%
13:00 +22°C° 0.4 mm 1 mps 751 mmHg 81%
14:00 +23°C° 0.4 mm 2 mps 750 mmHg 77%
15:00 +24°C° 0.4 mm 2 mps 750 mmHg 74%
16:00 +23°C° 0.3 mm 2 mps 750 mmHg 76%
17:00 +22°C° 0.3 mm 3 mps 750 mmHg 79%
18:00 +21°C° 0.3 mm 3 mps 750 mmHg 81%
19:00 +20°C° 0 mm 2 mps 751 mmHg 84%
20:00 +19°C° 0 mm 2 mps 751 mmHg 87%
21:00 +17°C° 0 mm 2 mps 751 mmHg 89%
22:00 +18°C° 0 mm 1 mps 751 mmHg 90%
23:00 +16°C° 0 mm 1 mps 751 mmHg 91%

16 August, Sunday

Time Temperature Precipitation Wind Pressure Humidity
00:00 +16°C° 0 mm 1 mps 752 mmHg 92%
01:00 +16°C° 0 mm 1 mps 752 mmHg 92%
02:00 +14°C° 0 mm 0 mps 751 mmHg 92%
03:00 +14°C° 0 mm 0 mps 751 mmHg 93%
04:00 +14°C° 0 mm 0 mps 751 mmHg 93%
05:00 +14°C° 0 mm 0 mps 752 mmHg 93%
06:00 +14°C° 0 mm 0 mps 752 mmHg 93%
07:00 +16°C° 0 mm 0 mps 752 mmHg 87%
08:00 +17°C° 0 mm 0 mps 752 mmHg 82%
09:00 +19°C° 0 mm 0 mps 752 mmHg 76%
10:00 +20°C° 0 mm 0 mps 752 mmHg 72%
11:00 +21°C° 0 mm 0 mps 751 mmHg 67%
12:00 +24°C° 0 mm 1 mps 751 mmHg 62%
13:00 +24°C° 0 mm 1 mps 751 mmHg 61%
14:00 +24°C° 0 mm 1 mps 751 mmHg 60%
15:00 +24°C° 0 mm 2 mps 750 mmHg 59%
16:00 +23°C° 0 mm 2 mps 750 mmHg 64%
17:00 +23°C° 0 mm 2 mps 750 mmHg 69%
18:00 +21°C° 0 mm 2 mps 749 mmHg 74%
19:00 +20°C° 0.4 mm 2 mps 749 mmHg 79%
20:00 +19°C° 0.4 mm 2 mps 749 mmHg 84%
21:00 +18°C° 0.4 mm 2 mps 749 mmHg 89%
22:00 +18°C° 2 mm 2 mps 749 mmHg 91%
23:00 +17°C° 2 mm 2 mps 748 mmHg 94%
Show more